Regional Weather Roundup
Issued by NWS New Orleans/Baton Rouge, LA

Home | Current Version | Previous Version | Graphics & Text | Print | Product List | Glossary On
Versions: 1 2 3 4 5 6 7 8 9 10 11 12 13 14 15 16 17 18 19 20 21 22 23 24 25 26 27 28 29 30 31 32 33 34 35 36 37 38 39 40 41 42 43 44 45 46 47 48 49 50
799
ASUS44 KLIX 290907
RWRLIX
NEW ORLEANS REGIONAL WEATHER ROUNDUP
NATIONAL WEATHER SERVICE NEW ORLEANS LA
400 AM CDT SUN MAR 29 2015

NOTE: "FAIR" INDICATES FEW OR NO CLOUDS BELOW 12,000 FEET WITH NO
      SIGNIFICANT WEATHER AND/OR OBSTRUCTIONS TO VISIBILITY.
      SKY/WX - SKY CONDITION AND SIGNIFICANT WEATHER.
      TMP - AIR TEMPERATURE.     DP    - DEWPOINT TEMPERATURE.
      RH  - RELATIVE HUMIDITY.   PRES  - PRESSURE.
      HI  - HEAT INDEX.          WCI   - WIND CHILL INDEX.

*  THESE STATIONS ARE NOT NWS OR FAA STATIONS AND ARE NOT UNDER
   NWS QUALITY CONTROL.

LAZ038-040-048-061>063-065>067-069-291000-
SOUTHEAST LOUISIANA

CITY           SKY/WX    TMP DP  RH WIND       PRES   REMARKS
N.O. AUDUBON   NOT AVBL
N.O. INTL ARPT PTCLDY    57  51  80 SE7       30.21F
N.O. LAKEFRONT MOCLDY    61  53  75 E7        30.23S
SLIDELL        CLEAR     47  40  76 NE5       30.23F
BATON ROUGE    PTCLDY    51  50  96 NE5       30.21S
BOOTHVILLE     CLEAR     57  53  86 E5        30.22F
BELLE CHASSE   CLEAR     54  50  86 E3        30.21F
BOGALUSA*        N/A     47  33  58 NE5       30.27F
GALLIANO*      SUNNY     57  56  95 CALM      30.21S
NEW ROADS*       N/A     54  51  90 E3        30.20S
GONZALES*        N/A     54  54 100 CALM      30.20F
HAMMOND*       PTCLDY    50  43  76 E5        30.25S
HOUMA*         CLEAR     54  53  98 E3        30.20S FOG
PORT FOURCHON* SUNNY     66  61  82 SE8       30.23S

$$

MSZ070-080>082-291000-
SOUTHERN MISSISSIPPI

CITY           SKY/WX    TMP DP  RH WIND       PRES   REMARKS
MCCOMB         CLOUDY    47  33  58 E6        30.24F
GULFPORT       CLEAR     47  34  60 E6        30.25S
BILOXI         CLEAR     47  34  60 E10       30.25S
PASCAGOULA     CLEAR     44  35  70 NE6       30.27S

$$

COASTAL OBSERVATIONS
LAKE AND NEARSHORE STATIONS

STATION/POSITION TIME  TEMP    WIND        PRES    WAVE
                       AIR SEA DIR/SP/G            HT/PER
                 (UTC) (F)     (DEG/KT/KT) (MB)    (FT/S)

OFFSHORE STATIONS

STATION/POSITION TIME  TEMP    WIND        PRES    WAVE
                       AIR SEA DIR/SP/G            HT/PER
                 (UTC) (F)     (DEG/KT/KT) (MB)    (FT/S)
64 S DAUPHIN ISL 0850   63 71  110/  8/ 10 1024.2    1/ 4

$$




USA.gov is the U.S. government's official web portal to all federal, state and local government web resources and services.